Miscellaneous Local Product
Issued by NWS Hastings, NE

Home | Current Version | Previous Version | Graphics & Text | Print | Product List | Glossary On
Versions: 1 2 3 4 5 6 7 8 9 10 11 12 13 14 15 16 17 18 19 20 21 22 23 24 25 26 27 28 29 30 31 32 33 34 35 36 37 38 39 40 41 42 43 44 45 46 47 48 49 50
000
AXUS43 KGID 260802
MISGRI

GID CWA HOURLY WEATHER ROUNDUP
NATIONAL WEATHER SERVICE HASTINGS NE
300 AM CDT TUE JUL 26 2016

NOTE: "FAIR" INDICATES FEW OR NO CLOUDS BELOW 12,000 FEET WITH NO
SIGNIFICANT WEATHER AND/OR OBSTRUCTIONS TO VISIBILITY.

...SOUTH CENTRAL NEBRASKA...

CITY           SKY/WX    TMP DP  RH WIND       PRES   REMARKS
GRAND ISLAND   CLEAR     66  62  87 S5        30.12S
HASTINGS       CLEAR     69  60  73 S6        30.12F
KEARNEY        CLEAR     64  61  88 S6        30.12S
ORD            CLEAR     66  61  84 E3        30.10F
YORK           CLEAR     66  63  88 CALM      30.11S
AURORA         CLEAR     64  62  95 CALM      30.11S
LEXINGTON      CLEAR     67  61  80 SE3       30.12R
HOLDREGE       PTCLDY    64  60  88 SE3       30.12S
HEBRON         CLEAR     61  59  93 CALM      30.09F

...NEBRASKA PANHANDLE...

CITY           SKY/WX    TMP DP  RH WIND       PRES   REMARKS
CHADRON        CLEAR     76  61  59 S23G30    30.02F
ALLIANCE       CLEAR     64  61  90 E10       30.09F
SCOTTSBLUFF    CLEAR     68  61  78 NE8       30.07F
SIDNEY         CLEAR     68  62  81 S14       30.13F

...WESTERN AND NORTH CENTRAL NEBRASKA...

CITY           SKY/WX    TMP DP  RH WIND       PRES   REMARKS
VALENTINE      CLEAR     72  61  68 S12G21    30.07F
AINSWORTH      CLEAR     67  63  84 S9        30.10S
ONEILL         CLEAR     67  61  81 S9        30.10S
BROKEN BOW     CLEAR     66  62  87 SE3       30.11F
IMPERIAL       CLEAR     69  64  84 S12       30.11S
NORTH PLATTE   CLEAR     67  64  90 E6        30.11F
MCCOOK         CLEAR     69  63  81 E6        30.10F

...EASTERN NEBRASKA...

CITY           SKY/WX    TMP DP  RH WIND       PRES   REMARKS
NORFOLK        CLEAR     65  61  87 CALM      30.09F
SO SIOUX CITY  CLEAR     68  63  84 E5        30.08F
TEKAMAH        CLEAR     64  62  93 N3        30.09F FOG
COLUMBUS       CLEAR     63  54  72 CALM      30.10F
ALBION         CLEAR     62  59  89 CALM      30.11F
OMAHA EPPLEY   PTCLDY    67  64  90 N3        30.08F
OFFUTT AFB     CLEAR     65  65 100 CALM      30.07F
MILLARD        CLEAR     68  67  96 CALM      30.08F
LINCOLN        CLEAR     65  63  93 N5        30.10S
NEBRASKA CITY  CLEAR     71  65  81 CALM      30.08F
BEATRICE       PTCLDY    64  61  91 CALM      30.09S
FALLS CITY     CLEAR     68  66  93 CALM      30.06F

...NORTHERN KANSAS...

CITY           SKY/WX    TMP DP  RH WIND       PRES   REMARKS
GOODLAND       PTCLDY    67  64  90 SE10      30.13S
HILL CITY      PTCLDY    67  65  93 E5        30.10F
NORTON         SUNNY     70  63  78 SE7       30.09F
SMITH CENTER   CLEAR     64  63  94 E8        30.10F
BELOIT         CLEAR     64  63  94 CALM      30.08S
HAYS           PTCLDY    70  61  73 E6        30.10S
RUSSELL        PTCLDY    68  67  96 E6        30.08F
CONCORDIA      CLEAR     65  62  90 CALM      30.09F
SALINA         CLEAR     71  68  90 NW6       30.07F
TOPEKA         CLEAR     69  67  93 CALM      30.04F



USA.gov is the U.S. government's official web portal to all federal, state and local government web resources and services.